#timestamp,LO_Frequency,Hit,StdDev 
1626134415.2,286047005.6,N
1626134435.0,286047003.5,N
1626134435.9,286047003.5,N
1626134455.8,286047004.2,N
1626134475.6,286047003.9,N
1626134495.4,286047003.7,N
1626134515.3,286047005.4,N
1626134535.1,286047002.9,N
1626134555.8,286047003.1,N
1626134575.7,286047004.2,N
1626134595.5,286047001.8,N
1626134615.4,286047002.3,N
1626134635.2,286047000.9,N
1626134655.0,286047000.6,N
1626134655.9,286047000.6,N
1626134675.8,286046999.8,N
1626134695.6,286047001.2,N
1626134715.4,286046998.6,N
1626134735.3,286046999.1,N
1626134755.1,286046997.0,N
1626134775.9,286046997.2,N
1626134795.7,286046998.0,N
1626134815.5,286046994.9,N
1626134835.4,286046995.2,N
1626134855.2,286046993.5,N
1626134875.0,286046995.4,N
1626134875.9,286046995.4,N
1626134895.8,286046994.6,N
1626134915.6,286046993.6,N
1626134935.5,286046993.6,N
1626134955.3,286046994.1,N
1626134975.1,286046994.0,N
1626134995.9,286046994.8,N
1626135015.7,286046994.2,N
1626135035.6,286046994.2,N
1626135055.4,286046996.0,N
1626135075.2,286046996.1,N
1626135095.1,286046993.3,N
1626135096.0,286046993.3,N
1626135115.8,286046995.8,N
1626135135.6,286046994.2,N
1626135155.5,286046996.1,N
1626135175.3,286046995.2,N
1626135195.2,286046997.8,N
1626135215.9,286046997.5,N
1626135235.7,286046996.7,N
1626135255.6,286046997.6,N
1626135275.4,286046995.0,Y
1626135295.3,286047000.0,P
1626135315.1,286046999.9,N
1626135316.0,286046999.9,N
1626135335.8,286046999.9,N
1626135355.7,286046999.9,N
1626135375.5,286047000.5,N
1626135395.3,286047000.5,N
1626135415.2,286047000.9,N
1626135435.0,286047000.6,N
1626135435.9,286047000.6,N
1626135455.8,286047002.7,N
1626135475.6,286047002.2,N
1626135495.4,286046999.9,N
1626135515.3,286046999.9,N
1626135535.1,286047002.2,N
1626135555.8,286047002.8,N
1626135575.7,286047002.2,N
1626135595.5,286047001.8,N
1626135615.4,286047001.9,N
1626135635.2,286047001.7,N
1626135655.0,286047004.0,N
1626135655.9,286047004.0,N
1626135675.8,286047004.3,N
1626135695.6,286047001.8,N
1626135715.5,286047004.0,N
1626135735.3,286047003.4,N
1626135755.1,286047003.3,N
1626135775.9,286047003.7,N
1626135795.7,286047003.4,N
1626135815.5,286047003.1,N
1626135835.4,286047004.2,N
1626135855.2,286047003.9,N
1626135875.1,286047001.4,N
1626135876.0,286047001.4,N
1626135895.8,286047003.9,N
1626135915.6,286047003.5,N
1626135935.5,286047005.5,Y
1626135955.3,286047001.8,P
1626135975.1,286047001.4,P
1626135995.9,286047000.5,N
1626136015.7,286046999.8,N
1626136035.6,286047002.3,N
1626136055.4,286046999.8,N
1626136075.2,286047000.3,N
1626136095.1,286046999.8,N
1626136096.0,286046999.8,N
1626136115.8,286047000.4,N
1626136135.7,286047001.1,N
1626136155.5,286047001.1,N
1626136175.3,286047000.5,N
1626136195.2,286047000.7,N
1626136215.0,286047000.5,N
1626136215.9,286047000.5,N
1626136235.7,286047000.3,N
1626136255.6,286047000.3,N
1626136275.4,286047002.3,N
1626136295.3,286047002.1,N
1626136315.1,286047000.4,N
1626136316.0,286047000.4,N
1626136335.8,286047002.4,N
1626136355.7,286047002.4,N
1626136375.5,286046999.8,N
1626136395.4,286046999.9,N
1626136415.2,286047002.3,N
1626136435.0,286047002.1,N
1626136435.9,286047002.1,N
1626136455.8,286047001.4,N
1626136475.6,286047001.7,N
1626136495.4,286047001.6,N
1626136515.3,286047004.3,Y
1626136535.1,286047002.7,P
1626136555.9,286047002.2,N
1626136575.7,286047001.6,N
1626136595.5,286047002.1,Y
1626136615.4,286047001.1,P
1626136635.2,286047000.2,N
1626136655.1,286046998.1,N
1626136656.0,286046998.1,N
1626136675.8,286047001.0,N
1626136695.6,286047001.1,N
1626136715.5,286047001.2,N
1626136735.3,286047000.9,N
1626136755.1,286047000.7,N
1626136775.9,286047001.1,N
1626136795.7,286047000.7,N
1626136815.6,286047001.0,N
1626136835.4,286047001.2,N
1626136855.2,286047001.2,N
1626136875.1,286047002.7,N
1626136876.0,286047002.7,N
1626136895.8,286047000.2,N
1626136915.6,286047000.5,N
1626136935.5,286047001.1,N
1626136955.3,286047000.4,N
1626136975.2,286047001.2,N
1626136995.9,286047000.9,N
1626137015.7,286047000.8,N
1626137035.6,286047000.5,N
1626137055.4,286047000.1,N
1626137075.2,286047000.6,N
1626137095.1,286047000.2,N
1626137096.0,286047000.2,N
1626137115.8,286047001.0,N
1626137135.7,286047002.8,N
1626137155.5,286047002.7,N
1626137175.3,286047000.4,N
1626137195.2,286047001.0,N
1626137215.0,286046998.4,N
1626137215.9,286046998.4,N
1626137235.7,286047000.8,N
1626137255.6,286046998.3,N
1626137275.4,286046998.8,N
1626137295.3,286046998.4,N
1626137315.1,286046999.4,N
1626137316.0,286046999.4,N
1626137335.8,286046998.3,N
1626137355.7,286046998.4,N
1626137375.5,286046998.6,N
1626137395.3,286047000.8,N
1626137415.2,286047000.4,N
1626137435.0,286047001.0,N
1626137435.9,286047001.0,N
1626137455.8,286047000.5,N
1626137475.6,286047001.9,N
1626137495.4,286047001.7,N
1626137515.3,286046999.7,N
1626137535.1,286047000.1,N
1626137555.9,286047001.5,N
1626137575.7,286047001.5,N
1626137595.5,286047001.3,N
1626137615.4,286047003.5,N
1626137635.2,286047003.1,N
1626137655.0,286047003.3,N
1626137655.9,286047003.3,N
1626137675.8,286047005.5,Y
1626137695.6,286047003.1,P
1626137715.5,286047003.4,N
1626137735.3,286047003.0,N
1626137755.1,286047003.0,N
1626137775.9,286047005.9,Y
1626137795.7,286047002.4,P
1626137815.6,286047002.0,P
1626137835.4,286047002.7,P
1626137855.2,286047002.6,Y
1626137875.1,286046998.8,P
1626137876.0,286046998.8,N
1626137895.8,286046999.5,N
1626137915.6,286046996.9,N
1626137935.5,286046997.1,N
1626137955.3,286046997.7,N
1626137975.2,286046997.5,N
1626137995.9,286046995.7,N
